Regional Weather Roundup
Issued by NWS Burlington, VT

Current Version | Previous Version | Graphics & Text | Print | Product List | Glossary Off
Versions: 1 2 3 4 5 6 7 8 9 10 11 12 13 14 15 16 17 18 19 20 21 22 23 24 25 26 27 28 29 30 31 32 33 34 35 36 37 38 39 40 41 42 43 44 45 46 47 48 49 50

000
ASUS41 KBTV 192310
RWRBTV
VERMONT REGIONAL WEATHER ROUNDUP
NATIONAL WEATHER SERVICE BURLINGTON VT
600 PM EST SUN FEB 19 2017

NOTE: "FAIR" INDICATES FEW OR NO CLOUDS BELOW 12,000 FEET WITH NO
SIGNIFICANT WEATHER AND/OR OBSTRUCTIONS TO VISIBILITY.

* THESE REPORTS ARE NOT UNDER NWS QUALITY CONTROL AND/OR DO NOT
  REPORT WEATHER SUCH AS PRECIPITATION AND FOG.

VTZ001>019-200000-
_____VERMONT_____


CITY           SKY/WX    TMP DP  RH WIND       PRES   REMARKS
BURLINGTON     MOCLDY    45  30  55 W6        29.86R
MONTPELIER     CLOUDY    42  30  62 W7        29.86R
MORRISVILLE    CLOUDY    44  28  53 CALM      29.84R
ST. JOHNSBURY*   N/A     42  30  62 MISG      29.80R
LYNDONVILLE*   CLOUDY    40  29  65 SW7       29.81R
MIDDLEBURY*    CLOUDY    44  20  39 N8        29.84R
RUTLAND*       CLOUDY    48  29  47 NW8G16    29.83R
SPRINGFIELD    CLOUDY    49  27  42 VRB6      29.81R
HIGHGATE*      CLOUDY    42  32  67 W5        29.85R
NEWPORT*       CLOUDY    40  31  68 W13G21    29.81R
BENNINGTON     MOCLDY    48  31  51 SW7       29.84R
SUTTON*          N/A     39 N/A N/A MISG        N/A

_____LAKE CHAMPLAIN_____


CITY           SKY/WX    TMP DP  RH WIND       PRES   REMARKS
BURTON ISLAND*   N/A     39  32  75 NW7         N/A
COLCHESTER RF*   N/A     46  32  57 NW21        N/A
DIAMOND ISL*     N/A     45  32  61 N10         N/A

$$

NYZ007-026>031-035-052-083-087-200000-
_____NORTHERN NEW YORK_____


CITY           SKY/WX    TMP DP  RH WIND       PRES   REMARKS
PLATTSBURGH    CLOUDY    46  29  51 NW8       29.86R
SARANAC LAKE   CLOUDY    39  30  70 W3        29.85R
MASSENA        CLOUDY    44  31  60 W12       29.92R
OGDENSBURG*    CLOUDY    44  32  61 NW6       29.92R
POTSDAM*       CLOUDY    43  34  70 NW6       29.92R
WATERTOWN      MOCLDY    39  34  82 SW6       29.92R
FT DRUM        CLOUDY    43  34  69 W5        29.91R
ALBANY         PTCLDY    50  31  48 W9G21     29.88R
GLENS FALLS    CLOUDY    51  29  42 NW12G21   29.84R

$$
NHZ002-005-011-200000-
_____NEW HAMPSHIRE_____


CITY           SKY/WX    TMP DP  RH WIND       PRES   REMARKS
LEBANON        CLOUDY    48  30  49 NW7       29.80R
KEENE          PTCLDY    52  30  43 VRB5      29.81R
MT WASHINGTON  FOG       19  19 100 W86G96      N/A  VSB 0   WCI  -8
PLYMOUTH       FAIR      47  28  48 NW7       29.77R
WHITEFIELD     CLOUDY    42  28  57 W6        29.79R

$$

_____REGIONAL QUEBEC LOCATIONS_____


CITY           SKY/WX    TMP DP  RH WIND       PRES   REMARKS
MONTREAL       MOCLDY    41  32  70 NW8       29.87R
QUEBEC CITY    CLOUDY    36  23  60 NW15      29.80R WCI  26
SHERBROOKE     LGT RAIN  36  32  87 NW7       29.80R WCI  30

_____REGIONAL ONTARIO LOCATIONS_____


CITY           SKY/WX    TMP DP  RH WIND       PRES   REMARKS
OTTAWA         CLOUDY    41  32  70 NW12      29.93R

______KEY______
VSB  - VISIBILITY IN MILES
WCI  - WIND CHILL INDEX
HX   - HEAT INDEX
$$
NNNN




USA.gov is the U.S. government's official web portal to all federal, state and local government web resources and services.